EW5980 Weather Reports


Display with metric or nautical units.
time (UTC)temp
F
wind
direction
speed
MPH
gust
MPH
rain 1hr
in
rain 24hr
in
rain mn
in
humidity
%
barometer
mb
20260508224543 67 0.0 0.0 0.00 0.00 0.00 57 1012.2
20260508223041 67 0.0 0.0 0.00 0.00 0.00 59 1012.3
20260508221544 67 0.0 0.0 0.00 0.00 0.00 60 1012.2
20260508220051 66 0.0 0.0 0.00 0.00 0.00 63 1012.2
20260508214547 66 0.0 0.0 0.00 0.00 0.00 63 1011.9
20260508213044 65 0.0 0.0 0.00 0.00 0.00 61 1012.4
20260508211541 65 0.0 0.0 0.00 0.00 0.00 62 1012.8
20260508210050 65 0.0 0.0 0.00 0.00 0.00 63 1013.2
20260508204541 65 0.0 0.0 0.00 0.00 0.00 64 1013.6
20260508203040 64 0.0 0.0 0.00 0.00 0.00 64 1013.7
20260508201539 64 0.0 0.0 0.00 0.00 0.00 66 1013.7
20260508200049 64 0.0 0.0 0.00 0.00 0.00 67 1014.0
20260508194547 64 0.0 0.0 0.00 0.00 0.00 69 1014.0
20260508193047 64 0.0 0.0 0.00 0.00 0.00 70 1014.4
20260508191542 64 0.0 0.0 0.00 0.00 0.00 71 1014.3
20260508190052 65 0.0 0.0 0.00 0.00 0.00 71 1014.1
20260508184557 65 0.0 0.0 0.00 0.00 0.00 72 1014.2
20260508183042 65 0.0 0.0 0.00 0.00 0.00 72 1014.9
20260508181555 65 0.0 0.0 0.00 0.00 0.00 71 1014.7
20260508180041 65 0.0 0.0 0.00 0.00 0.00 71 1015.4
20260508174543 65 0.0 0.0 0.00 0.00 0.00 71 1015.2
20260508173051 64 0.0 0.0 0.00 0.00 0.00 72 1014.6
20260508171543 64 0.0 0.0 0.00 0.00 0.00 72 1015.5
20260508170043 64 0.0 0.0 0.00 0.00 0.00 71 1015.8
20260508164557 64 0.0 0.0 0.00 0.00 0.00 71 1015.6
20260508163040 64 0.0 0.0 0.00 0.00 0.00 71 1016.0
20260508161549 64 0.0 0.0 0.00 0.00 0.00 71 1016.2
20260508160047 64 0.0 0.0 0.00 0.00 0.00 71 1015.9
20260508154545 64 0.0 0.0 0.00 0.00 0.00 71 1016.0
20260508153043 65 0.0 0.0 0.00 0.00 0.00 71 1016.3
20260508151544 65 0.0 0.0 0.00 0.00 0.00 71 1016.3
20260508150047 65 0.0 0.0 0.00 0.00 0.00 71 1016.3
20260508144600 64 0.0 0.0 0.00 0.00 0.00 71 1016.5
20260508143045 64 0.0 0.0 0.00 0.00 0.00 71 1016.4
20260508141552 64 0.0 0.0 0.00 0.00 0.00 70 1015.9
20260508140049 63 0.0 0.0 0.00 0.00 0.00 70 1015.9
20260508134551 63 0.0 0.0 0.00 0.00 0.00 69 1016.1
20260508133108 63 0.0 0.0 0.00 0.00 0.00 67 1016.3
20260508131542 62 0.0 0.0 0.00 0.00 0.00 67 1016.0
20260508130045 62 0.0 0.0 0.00 0.00 0.00 65 1016.1
20260508124542 62 0.0 0.0 0.00 0.00 0.00 63 1016.0
20260508123056 61 0.0 0.0 0.00 0.00 0.00 61 1016.4
20260508121540 61 0.0 0.0 0.00 0.00 0.00 58 1016.9
20260508120045 61 0.0 0.0 0.00 0.00 0.00 57 1016.8
20260508114545 61 0.0 0.0 0.00 0.00 0.00 52 1016.8
20260508113058 61 0.0 0.0 0.00 0.00 0.00 52 1016.5
20260508111545 60 0.0 0.0 0.00 0.00 0.00 49 1016.1
20260508110050 60 0.0 0.0 0.00 0.00 0.00 46 1016.1
20260508104539 60 0.0 0.0 0.00 0.00 0.00 45 1016.2
20260508103056 60 0.0 0.0 0.00 0.00 0.00 49 1016.0
20260508101547 60 0.0 0.0 0.00 0.00 0.00 52 1016.0
20260508100046 60 0.0 0.0 0.00 0.00 0.00 55 1015.7
20260508094542 60 0.0 0.0 0.00 0.00 0.00 57 1015.4
20260508093042 60 0.0 0.0 0.00 0.00 0.00 59 1015.2
20260508091553 60 0.0 0.0 0.00 0.00 0.00 59 1015.1
20260508090059 61 0.0 0.0 0.00 0.00 0.00 60 1015.2
20260508084542 61 0.0 0.0 0.00 0.00 0.00 61 1014.9
20260508083042 61 0.0 0.0 0.00 0.00 0.00 61 1014.7
20260508081542 61 0.0 0.0 0.00 0.00 0.00 62 1014.9
20260508080041 61 0.0 0.0 0.00 0.00 0.00 61 1015.0
20260508074546 61 0.0 0.0 0.00 0.00 0.00 59 1015.2
20260508073051 61 0.0 0.0 0.00 0.00 0.00 57 1015.2
20260508071554 61 0.0 0.0 0.00 0.00 0.00 50 1015.4
20260508070045 61 0.0 0.0 0.00 0.00 0.00 49 1015.7
20260508064541 61 0.0 0.0 0.00 0.00 0.00 48 1015.8
20260508063039 61 0.0 0.0 0.00 0.00 0.00 46 1015.7
20260508061543 61 0.0 0.0 0.00 0.00 0.00 41 1015.3
20260508060043 62 0.0 0.0 0.00 0.00 0.00 36 1015.1
20260508054545 62 0.0 0.0 0.00 0.00 0.00 27 1015.7
20260508053108 62 0.0 0.0 0.00 0.00 0.00 21 1016.0
20260508051542 62 0.0 0.0 0.00 0.00 0.00 16 1016.0
20260508050045 63 0.0 0.0 0.00 0.00 0.00 15 1016.0
20260508044543 63 0.0 0.0 0.00 0.00 0.00 17 1016.2
20260508043042 63 0.0 0.0 0.00 0.00 0.00 19 1016.0
20260508041607 62 0.0 0.0 0.00 0.00 0.00 23 1016.0
20260508040105 62 0.0 0.0 0.00 0.00 0.00 27 1016.4
20260508034543 62 0.0 0.0 0.00 0.00 0.00 31 1016.3
20260508033042 62 0.0 0.0 0.00 0.00 0.00 37 1016.6
20260508031542 63 0.0 0.0 0.00 0.00 0.00 46 1016.3
20260508030040 63 0.0 0.0 0.00 0.00 0.00 50 1016.2
20260508024543 63 0.0 0.0 0.00 0.00 0.00 52 1016.2
20260508023045 64 0.0 0.0 0.00 0.00 0.00 56 1016.2
20260508021543 64 0.0 0.0 0.00 0.00 0.00 56 1015.9
20260508020047 65 0.0 0.0 0.00 0.00 0.00 61 1015.8
20260508014541 65 0.0 0.0 0.00 0.00 0.00 67 1015.5
20260508013045 66 0.0 0.0 0.00 0.00 0.00 69 1015.8
20260508011553 66 0.0 0.0 0.00 0.00 0.00 70 1015.1
20260508010041 67 0.0 0.0 0.00 0.00 0.00 71 1015.2
20260508004543 67 0.0 0.0 0.00 0.00 0.00 71 1015.4
20260508003040 68 0.0 0.0 0.00 0.00 0.00 71 1015.7
20260508001541 68 0.0 0.0 0.00 0.00 0.00 71 1015.0
20260508000045 69 0.0 0.0 0.00 0.00 0.00 71 1015.2
20260507234542 70 0.0 0.0 0.00 0.00 0.00 71 1015.1
20260507233056 70 0.0 0.0 0.00 0.00 0.00 71 1015.0
20260507231539 71 0.0 0.0 0.00 0.00 0.00 70 1015.0
20260507230043 71 0.0 0.0 0.00 0.00 0.00 71 1014.9